This is the latest recevied weather packets stored in our database for station/object NZ3C. If no packets are shown the sender has not sent any weather packets the latest 10 day(s).
| Time | Temp. | Humidity | Pressure | Rain* | Wind** | Luminosity | Snow |
|---|---|---|---|---|---|---|---|
| 1777842721 | 19.44° C | 30% | 1017.5 hPa | 0 mm | - | 258 W/m² | - |
| 1777842418 | 20° C | 30% | 1017.4 hPa | 0 mm | - | 401 W/m² | - |
| 1777842115 | 20° C | 31% | 1017.4 hPa | 0 mm | - | 438 W/m² | - |
| 1777841810 | 19.44° C | 29% | 1017.3 hPa | 0 mm | - | 458 W/m² | - |
| 1777841506 | 19.44° C | 27% | 1017.6 hPa | 0 mm | - | 475 W/m² | - |
| 1777841203 | 20° C | 27% | 1017.6 hPa | 0 mm | - | 494 W/m² | - |
| 1777840901 | 20° C | 32% | 1017.5 hPa | 0 mm | - | 510 W/m² | - |
| 1777840598 | 19.44° C | 29% | 1017.7 hPa | 0 mm | - | 526 W/m² | - |
| 1777840295 | 19.44° C | 29% | 1017.7 hPa | 0 mm | - | 543 W/m² | - |
| 1777839992 | 19.44° C | 28% | 1017.7 hPa | 0 mm | - | 558 W/m² | - |
| 1777839690 | 19.44° C | 30% | 1017.6 hPa | 0 mm | - | 575 W/m² | - |
| 1777839389 | 19.44° C | 29% | 1017.5 hPa | 0 mm | - | 591 W/m² | - |
| 1777839085 | 18.89° C | 29% | 1017.8 hPa | 0 mm | - | 605 W/m² | - |
| 1777838781 | 19.44° C | 30% | 1018 hPa | 0 mm | - | 622 W/m² | - |
| 1777838478 | 18.89° C | 30% | 1017.9 hPa | 0 mm | - | 637 W/m² | - |
| 1777838175 | 18.89° C | 30% | 1018 hPa | 0 mm | - | 647 W/m² | - |
| 1777837872 | 19.44° C | 31% | 1018.2 hPa | 0 mm | - | 663 W/m² | - |
| 1777837569 | 19.44° C | 31% | 1018.2 hPa | 0 mm | - | 678 W/m² | - |
| 1777837264 | 20.56° C | 31% | 1018.2 hPa | 0 mm | - | 692 W/m² | - |
| 1777836961 | 20° C | 32% | 1018.4 hPa | 0 mm | - | 703 W/m² | - |
| 1777836656 | 19.44° C | 33% | 1018.5 hPa | 0 mm | - | 716 W/m² | - |
| 1777836353 | 19.44° C | 31% | 1018.3 hPa | 0 mm | - | 730 W/m² | - |
| 1777836048 | 18.89° C | 37% | 1018.3 hPa | 0 mm | - | 740 W/m² | - |
| 1777835745 | 19.44° C | 30% | 1018.6 hPa | 0 mm | - | 753 W/m² | - |
| 1777835442 | 19.44° C | 31% | 1018.7 hPa | 0 mm | - | 766 W/m² | - |
* Rain latest hour (hover to see other rain measurements)
** Current wind speed in m/s (hover to see current wind gust speed)